Tracking 22881 objects as of 20-Apr-2021
HD Live streaming from Space Station
objects crossing your sky now

STARLINK-2318

Track STARLINK-2318 now!
10-day predictions
STARLINK-2318 is classified as:


NORAD ID: 48025
Int'l Code: 2021-024BA
Perigee: 356.5 km
Apogee: 357.5 km
Inclination: 53.0 °
Period: 91.5 minutes
Semi major axis: 6727 km
RCS: Unknown
Launch date: March 24, 2021
Source: United States (US)
Launch site: AIR FORCE EASTERN TEST RANGE (AFETR)
aabbcc
Your satellite tracking list
Your tracking list is empty




NASA's NSSDC Master Catalog

Two Line Element Set (TLE):
1 48025U 21024BA  21109.83334491  .00091570  00000-0  65063-3 0  9991
2 48025  53.0483  72.6247 0000799  80.9162 171.5951 15.73165047  4960
Source of the keplerian elements: AFSPC